This is the latest recevied weather packets stored in our database for station/object FREPRT-WX. If no packets are shown the sender has not sent any weather packets the latest 10 day(s).
| Time | Temp. | Humidity | Pressure | Rain* | Wind** | Luminosity | Snow |
|---|---|---|---|---|---|---|---|
| 1777123853 | 10° C | 92% | 983.2 hPa | 0 mm | - | - | - |
| 1777122938 | 10° C | 92% | 983.2 hPa | 0 mm | - | - | - |
| 1777122058 | 10° C | 92% | 983.2 hPa | 0 mm | - | - | - |
| 1777121136 | 9.44° C | 95% | 982.5 hPa | 0 mm | - | - | - |
| 1777120253 | 9.44° C | 89% | 982.9 hPa | 0 mm | - | - | - |
| 1777119336 | 10° C | 89% | 983 hPa | 0 mm | - | - | - |
| 1777118464 | 10° C | 89% | 983 hPa | 0 mm | - | - | - |
| 1777117537 | 9.44° C | 90% | 982 hPa | 0 mm | - | - | - |
| 1777116654 | 10° C | 91% | 982.5 hPa | 0 mm | - | - | - |
| 1777115742 | 10° C | 91% | 982.5 hPa | 0 mm | - | - | - |
| 1777114862 | 10° C | 91% | 982.5 hPa | 0 mm | - | - | - |
| 1777113055 | 10° C | 94% | 982 hPa | 0 mm | - | - | - |
| 1777112141 | 10° C | 94% | 982 hPa | 0 mm | - | - | - |
| 1777111260 | 10° C | 91% | 981.9 hPa | 0 mm | - | - | - |
| 1777110341 | 10° C | 91% | 980.8 hPa | 0 mm | - | - | - |
| 1777109453 | 10° C | 91% | 980.8 hPa | 0 mm | - | - | - |
| 1777108537 | 10.56° C | 91% | 980.8 hPa | 0 mm | - | - | - |
| 1777107658 | 10.56° C | 91% | 980.8 hPa | 0 mm | - | - | - |
| 1777106742 | 10.56° C | 92% | 980.5 hPa | 0 mm | - | - | - |
| 1777105850 | 10.56° C | 89% | 980.4 hPa | 0 mm | - | - | - |
| 1777104941 | 11.67° C | 89% | 980.4 hPa | 0 mm | - | - | - |
| 1777104060 | 11.67° C | 89% | 980.4 hPa | 0 mm | - | - | - |
| 1777103141 | 12.22° C | 90% | 979.5 hPa | 0 mm | - | - | - |
| 1777102249 | 12.78° C | 90% | 979.5 hPa | 0 mm | - | - | - |
| 1777101342 | 12.78° C | 90% | 979.5 hPa | 0 mm | - | - | - |
* Rain latest hour (hover to see other rain measurements)
** Current wind speed in m/s (hover to see current wind gust speed)